Location: Lone Wolf Observatory
(41.0360°N, 89.2260°W)
Time: 05:12:26
(UTC-05:00)

Amateur Radio Satellites - All Passes

Search period start: 22 September 2014 04:42
Search period end: 23 September 2014 04:42
Location: Lone Wolf Observatory, 41.0360°N, 89.2260°W

Satellite Date Start Highest point End Downlink Frequencies (MHz)
Time Altitude Azimuth
OPAL 22 Sep 04:43:25 04:48:36 81° 73° (ENE) 04:53:51 ?
SO-50 22 Sep 04:47:02 04:47:51 10° 33° (NNE) 04:48:40 436.795 FM
AO-27 22 Sep 04:49:14 04:52:19 16° 299° (WNW) 04:55:24 436.795 MHz FM
TMSAT-1 22 Sep 04:51:11 04:56:05 39° 291° (WNW) 05:00:58 436.925 FM
AO-Echo 22 Sep 04:57:12 04:57:58 10° 301° (WNW) 04:58:43 ?
JAS-1B 22 Sep 05:14:53 05:16:43 12° 305° (NW) 05:18:33 435.800 - 435.900 CW/SSB
AO-7 22 Sep 05:17:02 05:25:18 67° 105° (ESE) 05:33:32 29.400 - 29.500 MHz
RS-15 22 Sep 05:23:18 05:34:10 61° 310° (NW) 05:45:00 29.354 - 29.394 USB, Beacon 29.352 USB
ISS 22 Sep 05:27:42 05:29:26 13° 1° (N) 05:31:09 145.800 FM
STRAND 1 22 Sep 05:31:33 05:34:18 15° 60° (ENE) 05:37:04 ?
KITSAT 1 22 Sep 05:55:03 06:01:39 29° 254° (WSW) 06:08:14 435.175 FM
Uosat F 22 Sep 06:06:22 06:11:05 42° 290° (WNW) 06:15:47 435.120 FM
JAS-2 22 Sep 06:24:01 06:30:03 50° 100° (E) 06:36:48 435.800 - 435.900 CW/SSB, 435.910 FM
SO-50 22 Sep 06:24:48 06:29:30 52° 53° (NE) 06:34:15 436.795 FM
OPAL 22 Sep 06:26:08 06:28:04 12° 269° (W) 06:30:00 ?
MaSat-1 22 Sep 06:43:21 06:45:43 13° 101° (E) 06:48:04 437.345 MHz
Hamsat 22 Sep 07:02:26 07:06:41 77° 284° (WNW) 07:10:52 145.90 MHz
ISS 22 Sep 07:04:17 07:07:03 23° 22° (NNE) 07:09:48 145.800 FM
STRAND 1 22 Sep 07:07:49 07:12:53 72° 257° (WSW) 07:17:59 ?
AO-7 22 Sep 07:10:42 07:17:28 29° 304° (NW) 07:24:14 29.400 - 29.500 MHz
RS-15 22 Sep 07:41:04 07:49:25 24° 339° (NNW) 07:57:51 29.354 - 29.394 USB, Beacon 29.352 USB
UOSAT-12 22 Sep 07:47:40 07:51:57 32° 48° (NE) 07:56:09 437.025 FM, 437.400 FM
SO-50 22 Sep 08:06:15 08:09:43 20° 250° (WSW) 08:13:11 436.795 FM
JAS-2 22 Sep 08:09:46 08:14:53 29° 294° (WNW) 08:20:30 435.800 - 435.900 CW/SSB, 435.910 FM
SO-67 22 Sep 08:12:03 08:15:30 80° 283° (WNW) 08:18:57 435.3500 MHz FM
MaSat-1 22 Sep 08:16:51 08:21:51 75° 296° (WNW) 08:26:45 437.345 MHz
ISS 22 Sep 08:40:41 08:43:59 60° 220° (SW) 08:47:15 145.800 FM
HO-68 22 Sep 08:49:49 08:55:07 22° 92° (E) 09:00:23 435.675 MHz FM
UOSAT-12 22 Sep 09:27:53 09:32:03 32° 246° (WSW) 09:36:09 437.025 FM, 437.400 FM
MaSat-1 22 Sep 09:57:26 09:59:19 12° 314° (NW) 10:01:10 437.345 MHz
RS-15 22 Sep 09:59:07 10:07:12 22° 16° (NNE) 10:15:25 29.354 - 29.394 USB, Beacon 29.352 USB
FUNcube-1 22 Sep 10:19:53 10:23:03 18° 92° (E) 10:26:10 145.950 - 145.970 MHz USB
Oscar 11 22 Sep 10:21:19 10:25:28 43° 99° (E) 10:29:35 145.825 FM, Beacon 2401.500 USB
HO-68 22 Sep 10:36:14 10:43:23 70° 290° (WNW) 10:50:30 435.675 MHz FM
UKube-1 22 Sep 10:40:51 10:45:14 87° 284° (WNW) 10:49:36 145.840 MHz, 145.915 MHz
Sapphire 22 Sep 10:50:48 10:54:47 21° 106° (ESE) 10:58:46 437.095 MHz 1200 baud AX-25 AFSK
ZACube-1 22 Sep 11:01:53 11:06:24 51° 99° (E) 11:10:50 437.345 MHz
PCSat 22 Sep 11:16:16 11:21:14 39° 111° (ESE) 11:26:14 145.825 MHz
FUNcube-1 22 Sep 11:55:15 11:59:38 44° 288° (WNW) 12:03:57 145.950 - 145.970 MHz USB
Oscar 11 22 Sep 11:58:26 12:01:19 18° 295° (WNW) 12:04:11 145.825 FM, Beacon 2401.500 USB
RS-15 22 Sep 12:12:13 12:22:59 52° 47° (NE) 12:34:07 29.354 - 29.394 USB, Beacon 29.352 USB
JAS-1B 22 Sep 12:18:25 12:22:42 16° 58° (ENE) 12:26:38 435.800 - 435.900 CW/SSB
Oscar 19 22 Sep 12:23:29 12:26:49 18° 62° (ENE) 12:30:10 437.125 CW, 437.150 USB
HO-68 22 Sep 12:26:26 12:29:49 14° 309° (NW) 12:33:12 435.675 MHz FM
Sapphire 22 Sep 12:32:30 12:37:46 54° 303° (WNW) 12:43:06 437.095 MHz 1200 baud AX-25 AFSK
ZACube-1 22 Sep 12:39:24 12:42:22 17° 296° (WNW) 12:45:19 437.345 MHz
AO-27 22 Sep 12:50:10 12:52:39 14° 59° (ENE) 12:55:07 436.795 MHz FM
AO-Echo 22 Sep 12:52:21 12:54:40 14° 62° (ENE) 12:57:00 ?
PCSat 22 Sep 12:59:54 13:04:42 32° 309° (NW) 13:09:33 145.825 MHz
Oscar 16 22 Sep 13:01:04 13:05:51 39° 69° (ENE) 13:10:39 437.025 USB, Beacon 2401.1428
ITAMSAT 1 22 Sep 13:50:43 13:55:38 47° 70° (ENE) 14:00:35 435.822 SSB
Uribyol 2 22 Sep 13:54:00 13:59:00 53° 71° (ENE) 14:04:03 436.500 FM
Gurwin Techsat 1B 22 Sep 13:57:51 14:02:14 27° 66° (ENE) 14:06:38 435.225 FM
Oscar 19 22 Sep 14:00:30 14:05:38 62° 259° (WSW) 14:10:49 437.125 CW, 437.150 USB
JAS-1B 22 Sep 14:04:04 14:12:33 81° 74° (ENE) 14:19:35 435.800 - 435.900 CW/SSB
Sapphire 22 Sep 14:21:09 14:22:29 11° 325° (NW) 14:23:48 437.095 MHz 1200 baud AX-25 AFSK
RS-15 22 Sep 14:24:50 14:35:19 50° 249° (WSW) 14:46:15 29.354 - 29.394 USB, Beacon 29.352 USB
AO-27 22 Sep 14:26:17 14:31:27 81° 256° (WSW) 14:36:40 436.795 MHz FM
AO-7 22 Sep 14:26:36 14:32:14 21° 51° (NE) 14:37:51 29.400 - 29.500 MHz
AO-Echo 22 Sep 14:28:13 14:32:54 66° 258° (WSW) 14:37:35 ?
TMSAT-1 22 Sep 14:32:12 14:37:06 40° 69° (ENE) 14:42:02 436.925 FM
Oscar 16 22 Sep 14:41:01 14:45:17 26° 265° (W) 14:49:34 437.025 USB, Beacon 2401.1428
ITAMSAT 1 22 Sep 15:31:31 15:35:21 21° 267° (W) 15:39:12 435.822 SSB
Uribyol 2 22 Sep 15:35:17 15:38:48 18° 268° (W) 15:42:20 436.500 FM
Gurwin Techsat 1B 22 Sep 15:37:05 15:42:00 39° 262° (W) 15:46:58 435.225 FM
Uosat F 22 Sep 15:41:21 15:45:43 31° 67° (ENE) 15:50:05 435.120 FM
JAS-1B 22 Sep 15:57:53 16:03:30 20° 267° (W) 16:08:35 435.800 - 435.900 CW/SSB
Saudisat 1A 22 Sep 16:04:44 16:08:38 32° 115° (ESE) 16:12:33 436.775 MHz
TMSAT-1 22 Sep 16:12:49 16:17:08 25° 266° (W) 16:21:28 436.925 FM
AO-7 22 Sep 16:15:34 16:23:53 86° 71° (ENE) 16:32:13 29.400 - 29.500 MHz
MaSat-1 22 Sep 16:34:23 16:37:07 19° 51° (NE) 16:39:35 437.345 MHz
JAS-2 22 Sep 16:39:23 16:42:39 17° 61° (ENE) 16:45:56 435.800 - 435.900 CW/SSB, 435.910 FM
OPAL 22 Sep 16:54:30 16:58:21 21° 95° (E) 17:02:09 ?
Uosat F 22 Sep 17:20:06 17:24:27 30° 264° (W) 17:28:50 435.120 FM
Saudisat 1A 22 Sep 17:44:21 17:48:12 29° 312° (NW) 17:52:04 436.775 MHz
Hamsat 22 Sep 17:55:09 17:59:29 73° 76° (ENE) 18:03:50 145.90 MHz
MaSat-1 22 Sep 18:10:47 18:13:51 26° 254° (WSW) 18:16:32 437.345 MHz
AO-7 22 Sep 18:12:04 18:17:35 19° 269° (W) 18:23:07 29.400 - 29.500 MHz
JAS-2 22 Sep 18:22:10 18:27:18 57° 259° (W) 18:32:26 435.800 - 435.900 CW/SSB, 435.910 FM
KITSAT 1 22 Sep 18:26:56 18:34:27 45° 110° (ESE) 18:42:00 435.175 FM
OPAL 22 Sep 18:32:32 18:37:27 47° 292° (WNW) 18:42:18 ?
SO-67 22 Sep 18:44:56 18:47:59 30° 72° (ENE) 18:51:03 435.3500 MHz FM
STRAND 1 22 Sep 19:18:41 19:23:29 39° 98° (E) 19:28:16 ?
HO-68 22 Sep 19:19:57 19:24:24 18° 54° (NE) 19:28:51 435.675 MHz FM
Sapphire 22 Sep 19:37:57 19:41:57 20° 45° (NE) 19:45:55 437.095 MHz 1200 baud AX-25 AFSK
PCSat 22 Sep 20:04:07 20:09:00 32° 51° (NE) 20:13:50 145.825 MHz
SO-67 22 Sep 20:19:08 20:21:05 14° 267° (W) 20:23:02 435.3500 MHz FM
KITSAT 1 22 Sep 20:22:10 20:29:50 45° 310° (NW) 20:37:33 435.175 FM
SO-50 22 Sep 20:41:35 20:44:18 16° 109° (ESE) 20:47:02 436.795 FM
STRAND 1 22 Sep 20:58:16 21:02:28 26° 294° (WNW) 21:06:39 ?
HO-68 22 Sep 21:03:58 21:11:07 88° 73° (ENE) 21:18:19 435.675 MHz FM
Oscar 11 22 Sep 21:16:16 21:20:12 34° 70° (ENE) 21:24:08 145.825 FM, Beacon 2401.500 USB
FUNcube-1 22 Sep 21:16:58 21:19:32 15° 63° (ENE) 21:22:08 145.950 - 145.970 MHz USB
Sapphire 22 Sep 21:20:29 21:25:54 70° 244° (WSW) 21:31:16 437.095 MHz 1200 baud AX-25 AFSK
UKube-1 22 Sep 21:36:01 21:40:20 80° 75° (ENE) 21:44:41 145.840 MHz, 145.915 MHz
PCSat 22 Sep 21:47:28 21:52:26 38° 249° (WSW) 21:57:23 145.825 MHz
ZACube-1 22 Sep 21:58:11 22:02:19 40° 71° (ENE) 22:06:34 437.345 MHz
SO-50 22 Sep 22:19:57 22:24:21 56° 306° (NW) 22:28:54 436.795 FM
KITSAT 1 22 Sep 22:23:20 22:27:40 15° 336° (NNW) 22:32:01 435.175 FM
FUNcube-1 22 Sep 22:51:05 22:55:25 55° 260° (W) 22:59:54 145.950 - 145.970 MHz USB
Oscar 11 22 Sep 22:53:06 22:56:26 21° 266° (W) 22:59:48 145.825 FM, Beacon 2401.500 USB
HO-68 22 Sep 22:55:33 22:59:39 16° 270° (W) 23:03:47 435.675 MHz FM
ZACube-1 22 Sep 23:35:42 23:38:53 19° 268° (W) 23:42:09 437.345 MHz
UOSAT-12 22 Sep 23:38:06 23:42:42 80° 121° (ESE) 23:47:26 437.025 FM, 437.400 FM
SO-50 23 Sep 00:05:18 00:05:59 10° 327° (NNW) 00:06:39 436.795 FM
AO-40 23 Sep 00:17:14 01:39:50 18° 230° (SW) 03:59:36 Beacon 2401.320
KITSAT 1 23 Sep 00:25:36 00:27:28 11° 8° (N) 00:29:20 435.175 FM
Saudisat 1A 23 Sep 00:31:19 00:35:08 27° 47° (NE) 00:38:55 436.775 MHz
Oscar 16 23 Sep 01:14:35 01:17:01 13° 90° (E) 01:19:27 437.025 USB, Beacon 2401.1428
UOSAT-12 23 Sep 01:20:29 01:23:28 17° 320° (NW) 01:26:28 437.025 FM, 437.400 FM
ISS 23 Sep 01:22:39 01:25:50 45° 139° (SE) 01:29:03 145.800 FM
PANSAT 23 Sep 01:40:44 01:42:25 13° 179° (S) 01:44:05 not established
JAS-1B 23 Sep 01:51:18 01:54:41 16° 91° (E) 01:58:07 435.800 - 435.900 CW/SSB
ITAMSAT 1 23 Sep 02:04:49 02:08:08 17° 92° (E) 02:11:26 435.822 SSB
Uribyol 2 23 Sep 02:07:46 02:11:28 19° 93° (E) 02:15:10 436.500 FM
Saudisat 1A 23 Sep 02:10:44 02:14:44 34° 245° (WSW) 02:18:42 436.775 MHz
Oscar 19 23 Sep 02:12:20 02:17:19 47° 99° (E) 02:22:15 437.125 CW, 437.150 USB
KITSAT 1 23 Sep 02:20:03 02:26:29 25° 38° (NE) 02:32:53 435.175 FM
AO-Echo 23 Sep 02:35:10 02:39:46 39° 98° (E) 02:44:28 ?
RS-15 23 Sep 02:37:53 02:46:45 29° 104° (ESE) 02:55:27 29.354 - 29.394 USB, Beacon 29.352 USB
AO-27 23 Sep 02:39:40 02:44:30 37° 98° (E) 02:49:18 436.795 MHz FM
TMSAT-1 23 Sep 02:49:17 02:52:29 16° 91° (E) 02:55:39 436.925 FM
Oscar 16 23 Sep 02:51:43 02:56:53 72° 286° (WNW) 03:02:00 437.025 USB, Beacon 2401.1428
ISS 23 Sep 02:59:46 03:02:40 27° 336° (NNW) 03:05:34 145.800 FM
JAS-1B 23 Sep 03:40:18 03:45:55 61° 288° (WNW) 03:51:37 435.800 - 435.900 CW/SSB
ITAMSAT 1 23 Sep 03:42:52 03:48:00 59° 288° (WNW) 03:53:07 435.822 SSB
Uribyol 2 23 Sep 03:46:10 03:51:14 52° 289° (WNW) 03:56:16 436.500 FM
Oscar 19 23 Sep 03:52:27 03:56:19 22° 296° (WNW) 04:00:09 437.125 CW, 437.150 USB
Gurwin Techsat 1B 23 Sep 03:52:54 03:58:15 85° 104° (ESE) 04:03:34 435.225 FM
OPAL 23 Sep 04:08:46 04:13:32 39° 67° (ENE) 04:18:22 ?
AO-Echo 23 Sep 04:14:27 04:18:20 24° 294° (WNW) 04:22:18 ?
KITSAT 1 23 Sep 04:14:53 04:23:01 89° 60° (ENE) 04:31:05 435.175 FM
AO-7 23 Sep 04:18:02 04:24:57 29° 95° (E) 04:31:50 29.400 - 29.500 MHz
AO-27 23 Sep 04:19:28 04:23:51 28° 294° (WNW) 04:28:13 436.795 MHz FM
TMSAT-1 23 Sep 04:27:34 04:32:49 63° 287° (WNW) 04:38:03 436.925 FM
ISS 23 Sep 04:38:27 04:40:13 14° 356° (N) 04:41:59 145.800 FM
